Location: Hopville
(44.8032°N, 123.1329°W)
Time: 03:00:19
(UTC+00:00)

Cosmos 1726 Rocket - Pass Details

Date: 24 January 2021
Orbit: 604 x 628 km, 82.5° (Epoch: 26 February)

Event Time Altitude Azimuth Distance (km) Brightness Sun altitude
Rises 15:04:47 0° 202° (SSW) 2,845 7.0 -6.5°
Reaches altitude 10° 15:07:03 10° 208° (SSW) 1,946 6.1 -6.1°
Maximum altitude 15:11:12 47° 282° (WNW) 810 3.8 -5.4°
Drops below altitude 10° 15:15:24 10° 357° (N) 1,962 5.9 -4.8°
Sets 15:17:42 0° 4° (N) 2,872 6.8 -4.4°
